TimeCDT,TemperatureF,Dew PointF,Humidity,Sea Level PressureIn,VisibilityMPH,Wind Direction,Wind SpeedMPH,Gust SpeedMPH,PrecipitationIn,Events,Conditions,WindDirDegrees,DateUTC
12:53 AM,30.9,23.0,72,30.35,10.0,SW,4.6,-,N/A,,Overcast,220,2012-10-27 05:53:00
1:53 AM,32.0,21.9,66,30.35,10.0,WSW,5.8,-,N/A,,Overcast,240,2012-10-27 06:53:00
2:53 AM,28.9,21.0,72,30.35,10.0,WSW,4.6,-,N/A,,Mostly Cloudy,240,2012-10-27 07:53:00
3:53 AM,27.0,21.9,81,30.35,10.0,WSW,4.6,-,N/A,,Partly Cloudy,240,2012-10-27 08:53:00
4:53 AM,27.0,21.9,81,30.34,10.0,West,3.5,-,N/A,,Clear,260,2012-10-27 09:53:00
5:53 AM,26.1,21.9,84,30.36,10.0,West,3.5,-,N/A,,Clear,280,2012-10-27 10:53:00
6:53 AM,25.0,19.9,81,30.36,10.0,SW,3.5,-,N/A,,Clear,220,2012-10-27 11:53:00
7:53 AM,23.0,19.0,85,30.37,10.0,Calm,Calm,-,N/A,,Clear,0,2012-10-27 12:53:00
8:53 AM,26.1,23.0,88,30.38,10.0,Calm,Calm,-,N/A,,Clear,0,2012-10-27 13:53:00
9:53 AM,32.0,24.1,73,30.38,10.0,Calm,Calm,-,N/A,,Partly Cloudy,0,2012-10-27 14:53:00
10:53 AM,34.0,21.9,61,30.38,10.0,SW,4.6,-,N/A,,Clear,220,2012-10-27 15:53:00
11:53 AM,36.0,19.0,50,30.38,10.0,SW,8.1,-,N/A,,Clear,220,2012-10-27 16:53:00
12:53 PM,37.0,19.0,48,30.36,10.0,South,8.1,-,N/A,,Clear,190,2012-10-27 17:53:00
1:53 PM,39.0,19.0,45,30.34,10.0,SW,8.1,-,N/A,,Partly Cloudy,220,2012-10-27 18:53:00
2:53 PM,39.0,19.9,46,30.32,10.0,Variable,4.6,-,N/A,,Partly Cloudy,0,2012-10-27 19:53:00
3:53 PM,39.9,21.0,47,30.30,10.0,SSW,9.2,-,N/A,,Scattered Clouds,210,2012-10-27 20:53:00
4:53 PM,37.9,21.0,51,30.31,10.0,SW,4.6,-,N/A,,Partly Cloudy,220,2012-10-27 21:53:00
5:53 PM,37.0,21.9,54,30.31,10.0,South,4.6,-,N/A,,Scattered Clouds,190,2012-10-27 22:53:00
6:53 PM,36.0,23.0,59,30.32,10.0,SSE,3.5,-,N/A,,Overcast,160,2012-10-27 23:53:00
7:53 PM,36.0,23.0,59,30.33,10.0,SE,6.9,-,N/A,,Overcast,130,2012-10-28 00:53:00
8:53 PM,35.1,24.1,64,30.33,10.0,SSE,8.1,-,N/A,,Overcast,160,2012-10-28 01:53:00
9:53 PM,35.1,24.1,64,30.32,10.0,South,6.9,-,N/A,,Overcast,180,2012-10-28 02:53:00
10:53 PM,35.1,23.0,61,30.32,10.0,South,8.1,-,N/A,,Overcast,180,2012-10-28 03:53:00
11:53 PM,34.0,23.0,64,30.32,10.0,South,10.4,-,N/A,,Overcast,180,2012-10-28 04:53:00